Terminal Aerodrome Forecast
Issued by NWS Twin Cities, MN

Home | Current Version | Previous Version | Graphics & Text | Print | Product List | Glossary On
Versions: 1 2 3 4 5 6 7 8 9 10 11 12 13 14 15 16 17 18 19 20
000
FTUS43 KMPX 210259 AAB
TAFSTC
TAF AMD
KSTC 210259Z 2103/2124 16007KT P6SM SCT025 BKN035
     FM211800 21006KT P6SM SCT250
     FM212100 30006KT P6SM BKN250=

USA.gov is the U.S. government's official web portal to all federal, state and local government web resources and services.